Simultaneous Nadir Overpasses (SNOs) Predictions

Prediction of SNOs between GOES-14 and AQUA Satellite Orbit:

Table of predicted SNOs for the next 14.0 days since TLE Epoch: 5/15/2021
Index Date Time (GOES-14) GOES-14 Lat,Lon AQUA Lat,Lon Distance(km) Time Diff (sec)
1 05/16/2021 20:29:54 -0.11,-104.32 -0.05,-103.94 42.25 80
2 05/18/2021 20:17:43 -0.12,-104.31 0.61,-100.99 377.66 80
3 05/19/2021 08:38:57 0.10,-104.15 0.50,-106.14 226.32 80
4 05/21/2021 08:29:26 0.11,-104.14 -0.10,-103.18 109.43 80
5 05/21/2021 20:50:50 -0.09,-104.31 -0.96,-108.38 462.84 80
6 05/23/2021 08:17:14 0.11,-104.14 -0.70,-100.22 445.30 80
7 05/23/2021 20:38:38 -0.09,-104.30 -0.35,-105.42 127.34 80
8 05/25/2021 20:23:47 -0.10,-104.29 0.32,-102.47 207.89 80
9 05/26/2021 08:45:02 0.07,-104.11 0.80,-107.62 398.77 80
10 05/28/2021 08:32:50 0.07,-104.10 0.19,-104.66 63.60 80
